星链-3772 (STARLINK-3772 )

导读 | 豆包AI

STARLINK-3772是美国太空探索技术公司(SpaceX)星链计划中的低轨通信卫星,于2022年4月21日发射升空,属于星链第一代组网卫星。作为全球规模最大低轨卫星星座的组成部分,它运行在数百公里的近地轨道,配备相控阵天线与氪离子推进系统,可提供宽带互联网接入服务,助力实现全球覆盖的卫星通信网络布局。

Basic Information
目录编号:
52290
目录名称:
STARLINK-3772
国际标识:
2022-041AF
轨道中心:
EARTH
卫星名称:
星链-3772
卫星全名:
星链-3772 (STARLINK-3772 )
卫星状态:
在轨 (已飞行1471 天)
发射日期:
2022-04-21 UTC
国别 :
美国 (US)
星等 :
--
Orbit Information
数据来源 国际轨道数据 AOE轨道数据
星历时间 2026-04-30T21:17:47+0800
11小时前
查看轨道信息
2026-04-28T07:00:00+0800
3天前
查看轨道信息
半长轴 6917.87km 6917.864km
偏心率 0.0001321 0.0001513
轨道倾角 53.217° 53.219°
近地点辐角 87.930° 109.592°
升交点赤经 226.292° 237.947°
平近点角 272.185° 183.587°
近地点 538.819km 538.68km
远地点 540.647km 540.774km
周期 95.437分钟 95.437分钟
每日圈数 15.088434 15.088454
Detailed Information
固有亮度:
5
最大亮度:
2.5
卫星平台:
Starlink v1.5
覆盖范围:
全球
运营商:
太空探索技术公司
运营商所在国:
美国
制造商(研发单位):
太空探索技术公司
制造商所在国:
美国
使用方式:
暂无
Satellite Introduction
星链(Starlink)计划是由太空探索技术公司(SpaceX)提出的一个巨型低轨卫星互联网星座项目,计划在2019年至2024年间在太空搭建由约1.2万颗卫星组成的“星链”网络,其中1584颗将部署在地球上空550千米处的近地轨道,并从2020年开始工作。该卫星仍在工作。
2D Orbit Map
3D Orbit Map
Orbit Altitude Analysis Chart
Orbit Inclination Analysis Chart
Orbit Comprehensive Analysis Chart
View Comprehensive Chart